Regional Weather Roundup
Issued by NWS

Home | Current Version | Previous Version | Graphics & Text | Print | Product List | Glossary On
Versions: 1 2 3 4 5 6 7 8 9 10 11 12 13 14 15 16 17 18 19 20 21 22 23 24 25 26 27 28 29 30 31 32 33 34 35 36 37 38 39 40 41 42 43 44 45 46 47 48 49 50
000
ASUS43 KLOT 250604
RWRIL

ILLINOIS REGIONAL WEATHER ROUNDUP
NATIONAL WEATHER SERVICE CHICAGO/ROMEOVILLE IL
100 AM CDT MON SEP 25 2017

NOTE: "FAIR" INDICATES FEW OR NO CLOUDS BELOW 12,000 FEET WITH NO
SIGNIFICANT WEATHER AND/OR OBSTRUCTIONS TO VISIBILITY.

* THESE STATIONS ARE NOT UNDER NWS QUALITY CONTROL. THEY ALSO MAY NOT
  REPORT WEATHER SUCH AS PRECIPITATION OR FOG.

ILZ001-002-007-009-015-016-024-250700-
NORTHWEST ILLINOIS

CITY           SKY/WX    TMP DP  RH WIND       PRES   REMARKS
MOLINE         CLEAR     70  61  73 E5        29.95F
6HR MIN TEMP:  69; 6HR MAX TEMP:  79;

STERLING*      CLEAR     64  62  93 E3        29.98S
SAVANNA*       CLEAR     65  63  92 CALM      29.97F
$$

ILZ003-004-008-010-011-017-018-250700-
NORTH CENTRAL ILLINOIS

CITY           SKY/WX    TMP DP  RH WIND       PRES   REMARKS
ROCKFORD       CLEAR     68  60  75 CALM      30.00S
6HR MIN TEMP:  68; 6HR MAX TEMP:  82;

FREEPORT*      CLEAR     67  60  77 S5        30.00S
ROCHELLE*      CLEAR     64  60  85 SE3       29.99F
$$

ILZ005-006-012>014-019>023-250700-
NORTHEAST ILLINOIS

CITY           SKY/WX    TMP DP  RH WIND       PRES   REMARKS
CHICAGO-OHARE  CLEAR     74  62  66 SE5       29.99F
6HR MIN TEMP:  72; 6HR MAX TEMP:  85;

CHICAGO-MIDWAY CLEAR     77  58  51 S6        30.00S
6HR MIN TEMP:  77; 6HR MAX TEMP:  83;

AURORA         CLEAR     70  62  76 SE6       30.00S
6HR MIN TEMP:  69; 6HR MAX TEMP:  80;

LANSING*       PTCLDY    69  60  72 CALM      30.01S
JOLIET*        CLEAR     71  60  68 CALM      30.00S
WAUKEGAN       CLEAR     67  67 100 CALM      30.00S
6HR MIN TEMP:  67; 6HR MAX TEMP:  76;

DUPAGE AIRPORT CLEAR     69  62  78 CALM      29.99F
6HR MIN TEMP:  69; 6HR MAX TEMP:  82;

KANKAKEE*      CLEAR     66  60  79 SE6       30.02S
WHEELING       CLEAR     70  64  81 CALM      30.01S
6HR MIN TEMP:  69; 6HR MAX TEMP:  83;

MORRIS*        CLEAR     71  62  72 SE3       29.98F
NORTHERLY ISL    N/A     70  67  90 CALM        N/A
$$

LMZ740>746-250700-
SOUTHERN LAKE MICHIGAN

STATION/POSITION SKY/WX   TEMP    WIND        PRES    VSBY  WAVE
                          AIR SEA DIR/SP/G                  HT/PER
                          (F)     (DEG/KT/KT) (MB)    (MI)  (FT/S)
SOUTHERN BUOY              74 71  110/  8/  8 1016.1          0
WILMETTE HARBOR            72 71  140/  6/  6   N/A           1
HARRISON CRIB              74     160/  6/  9   N/A
BURNHAM HARBOR             70                   N/A
CALUMET HARBOR             77     170/  4/  8 1015.4F
BURNS HARBOR               78     150/  7/ 11 1016.6F
MICHIGAN CITY              74     130/  7/  8   N/A
MICHIGAN CITY 6N           73 72  150/  6/  8   N/A           1
ST. JOSEPH                 74 72  170/  8/  8 1016.0F         1
$$

ILZ025>027-034>036-040-047-049-050-058-095>099-250700-
WEST-CENTRAL ILLINOIS

CITY           SKY/WX    TMP DP  RH WIND       PRES   REMARKS
QUINCY         CLEAR     74  62  66 S5        29.95S
GALESBURG*     CLEAR     67  61  80 CALM      29.98S
MACOMB*        CLEAR     64  60  89 CALM      29.98F
$$

ILZ028>032-037-038-041>044-048-051>054-059>061-250700-
CENTRAL ILLINOIS

CITY           SKY/WX    TMP DP  RH WIND       PRES   REMARKS
BLOOMINGTON    CLEAR     72  59  63 S12       30.01S
DECATUR        CLEAR     67  59  75 CALM      30.00S
PEORIA         CLEAR     74  59  59 SE5       29.97S
6HR MIN TEMP:  72; 6HR MAX TEMP:  84;

LACON*         CLEAR     71  60  67 SE3       29.96F
LINCOLN*       CLEAR     68  60  76 SE3       29.98S
SPRINGFIELD    CLEAR     73  61  65 S6        29.97S
6HR MIN TEMP:  68; 6HR MAX TEMP:  84;

TAYLORVILLE    NOT AVBL
$$

ILZ033-039-045-046-055>057-062-063-250700-
EAST-CENTRAL ILLINOIS

CITY           SKY/WX    TMP DP  RH WIND       PRES   REMARKS
CHAMPAIGN      PTCLDY    66  58  75 SE5       30.02S
MATTOON        CLEAR     70  61  73 SE5       30.00S
PARIS*         CLEAR     68  59  73 CALM      30.02F
$$

ILZ079-100>102-250700-
SOUTHWEST ILLINOIS

CITY           SKY/WX    TMP DP  RH WIND       PRES   REMARKS
BELLEVILLE     CLEAR     70  64  82 CALM      29.97S
CAHOKIA*       CLEAR     70  63  78 S5        29.98R
SPARTA*        CLEAR     70  64  81 CALM      30.00S
$$

ILZ064>066-069>071-074>076-080>082-084>086-088>090-092>094-250700-
SOUTH-CENTRAL ILLINOIS

CITY           SKY/WX    TMP DP  RH WIND       PRES   REMARKS
CARBONDALE     CLEAR     65  65 100 CALM      29.99S
6HR MIN TEMP:  64; 6HR MAX TEMP:  79;

MARION         CLEAR     66  66 100 CALM      30.00S
MT. VERNON       N/A     65  64  97 CALM      29.99F
CENTRALIA*     CLEAR     65  62  89 CALM      29.99S
SALEM*         CLEAR     66  61  84 CALM      30.00S
METROPOLIS*    CLEAR     65  64  94 CALM      29.99S
$$

ILZ067-068-072-073-078-083-087-091-250700-
SOUTHEAST ILLINOIS

CITY           SKY/WX    TMP DP  RH WIND       PRES   REMARKS
LAWRENCEVILLE  CLEAR     71  62  73 CALM      30.01S
FLORA*         CLEAR     68  63  84 CALM      30.00S
FAIRFIELD*     CLEAR     65  61  84 CALM      29.99S
HARRISBURG*    CLEAR     66  65  94 CALM      29.99F
ROBINSON*      CLEAR     62  61  96 CALM      30.02R
CARMI*         CLOUDY    66  64  94 W5        29.99S
$$

ABBREVIATIONS USED IN REMARKS
   TC - TEMPERATURE IN CELSIUS
  WCI - WIND CHILL INDEX
   HX - HEAT INDEX
  VSB - VISIBILITY
$$





USA.gov is the U.S. government's official web portal to all federal, state and local government web resources and services.